Location: Helsinki
(60.1699°N, 24.9384°E)
Time: 17:46:56
(UTC+02:00)

A-11 Canister half - Pass Details

Date: 30 October 2020
Orbit: 1525 x 1684 km, 47.3° (Epoch: 29 November)

Event Time Altitude Azimuth Distance (km) Brightness Sun altitude
Rises 19:43:47 0° 274° (W) 4,715 12.9 -24.5°
Reaches altitude 10° 19:47:32 10° 262° (W) 3,714 11.9 -25.0°
Maximum altitude 19:54:32 25° 212° (SSW) 2,716 10.4 -25.8°
Enters shadow 20:00:09 14° 169° (S) 3,380 10.5 -26.5°
